K4VI Weather Reports


Display with metric or nautical units.
time (UTC)temp
F
wind
direction
speed
MPH
gust
MPH
rain 1hr
in
rain 24hr
in
rain mn
in
humidity
%
barometer
mb
20260902053004 56 313 3.0 4.0 0.00 0.00 0.00 58 1040.7
20260902052503 57 328 2.0 4.0 0.00 0.00 0.00 57 1040.7
20260902052003 57 338 1.0 3.0 0.00 0.00 0.00 57 1040.7
20260902051503 57 332 1.0 3.0 0.00 0.00 0.00 57 1040.6
20260902051003 58 323 1.0 4.0 0.00 0.00 0.00 56 1040.5
20260902050504 57 308 1.0 4.0 0.00 0.00 0.00 57 1040.6
20260902050006 57 296 1.0 3.0 0.00 0.00 0.00 58 1040.6
20260902045719 57 287 1.0 2.0 0.00 0.00 0.00 58 1040.6
20260902045003 57 286 1.0 2.0 0.00 0.00 0.00 59 1040.7
20260902044503 57 286 1.0 2.0 0.00 0.00 0.00 60 1040.7
20260902044003 57 286 0.0 2.0 0.00 0.00 0.00 59 1040.7
20260902043503 56 281 1.0 3.0 0.00 0.00 0.00 59 1040.8
20260902043003 56 277 1.0 3.0 0.00 0.00 0.00 59 1040.8
20260902042503 56 265 1.0 3.0 0.00 0.00 0.00 60 1040.8
20260902042003 56 259 0.0 3.0 0.00 0.00 0.00 59 1040.9
20260902041504 56 257 0.0 2.0 0.00 0.00 0.00 59 1040.8
20260902041003 56 236 0.0 3.0 0.00 0.00 0.00 59 1040.8
20260902040503 57 217 1.0 3.0 0.00 0.00 0.00 58 1040.7
20260902040217 57 182 0.0 2.0 0.00 0.01 0.00 58 1040.8
20260902035503 57 181 1.0 2.0 0.00 0.02 0.00 57 1040.8
20260902035003 58 180 0.0 2.0 0.00 0.02 0.00 56 1040.7
20260902034503 58 180 0.0 1.0 0.00 0.02 0.00 56 1040.7
20260902034003 58 180 0.0 1.0 0.00 0.02 0.00 56 1040.7
20260902033503 58 201 0.0 2.0 0.00 0.02 0.00 56 1040.6
20260902033003 58 227 0.0 2.0 0.00 0.02 0.00 56 1040.5
20260902032503 58 329 1.0 3.0 0.00 0.02 0.00 56 1040.5
20260902032221 58 2 1.0 3.0 0.00 0.02 0.00 57 1040.5
20260902031718 58 39 1.0 3.0 0.00 0.02 0.00 57 1040.5
20260902031222 59 99 1.0 2.0 0.00 0.02 0.00 58 1040.5
20260902030503 59 101 0.0 1.0 0.00 0.02 0.00 57 1040.5
20260902030003 60 101 0.0 1.0 0.00 0.02 0.00 56 1040.4
20260902025503 60 102 0.0 2.0 0.00 0.02 0.00 55 1040.3
20260902025003 60 103 1.0 3.0 0.00 0.02 0.00 55 1040.2
20260902024503 60 103 0.0 3.0 0.00 0.02 0.00 55 1040.1
20260902024003 60 104 1.0 3.0 0.00 0.02 0.00 55 1040.0
20260902023503 61 114 2.0 8.0 0.00 0.02 0.00 54 1039.9
20260902023003 61 136 3.0 8.0 0.00 0.02 0.00 53 1039.9
20260902022718 61 155 3.0 8.0 0.00 0.02 0.00 53 1039.9
20260902022221 61 140 3.0 8.0 0.00 0.02 0.00 53 1039.9
20260902021503 62 108 2.0 6.0 0.00 0.02 0.00 50 1039.9
20260902021003 62 106 1.0 5.0 0.00 0.02 0.00 50 1039.9
20260902020503 62 105 1.0 5.0 0.00 0.02 0.00 50 1039.7
20260902020003 62 93 0.0 2.0 0.00 0.02 0.00 49 1039.7
20260902015721 62 98 0.0 2.0 0.00 0.02 0.00 48 1039.7
20260902015219 63 107 0.0 2.0 0.00 0.02 0.00 47 1039.6
20260902014717 63 107 1.0 3.0 0.00 0.02 0.00 47 1039.5
20260902014003 63 110 1.0 7.0 0.00 0.02 0.00 46 1039.5
20260902013503 64 108 2.0 7.0 0.00 0.02 0.00 46 1039.6
20260902013003 64 115 1.0 6.0 0.00 0.02 0.00 46 1039.5
20260902012503 64 133 1.0 3.0 0.00 0.02 0.00 46 1039.6
20260902012003 64 124 1.0 3.0 0.00 0.02 0.00 46 1039.5
20260902011503 64 128 1.0 7.0 0.00 0.02 0.00 46 1039.5
20260902011003 64 162 2.0 7.0 0.00 0.02 0.00 46 1039.5
20260902010503 64 191 3.0 7.0 0.00 0.02 0.00 47 1039.6
20260902010219 64 218 3.0 7.0 0.00 0.02 0.00 46 1039.6
20260902005717 64 256 3.0 7.0 0.00 0.02 0.00 50 1039.6
20260902005003 64 273 2.0 6.0 0.00 0.02 0.00 52 1039.5
20260902004503 64 269 2.0 9.0 0.00 0.02 0.00 52 1039.7
20260902004003 64 246 3.0 9.0 0.00 0.02 0.00 51 1039.7
20260902003503 64 208 2.0 7.0 0.00 0.02 0.00 51 1039.7
20260902003003 65 215 3.0 7.0 0.00 0.02 0.00 51 1039.6
20260902002503 65 187 4.0 10.0 0.00 0.02 0.00 51 1039.6
20260902002003 65 155 5.0 10.0 0.00 0.02 0.00 49 1039.5
20260902001503 66 159 5.0 12.0 0.00 0.02 0.00 48 1039.5
20260902001005 67 167 4.0 12.0 0.00 0.03 0.00 45 1039.4
20260902000503 68 161 2.0 10.0 0.00 0.03 0.00 40 1039.5
20260902000003 69 177 1.0 4.0 0.00 0.03 0.00 38 1039.4
20260901235503 69 146 2.0 4.0 0.00 0.03 0.00 38 1039.2
20260901235003 70 145 2.0 9.0 0.00 0.03 0.00 37 1039.0
20260901234503 70 156 3.0 9.0 0.00 0.03 0.00 36 1039.1
20260901234221 71 163 3.0 9.0 0.00 0.03 0.00 35 1039.1
20260901233503 72 199 2.0 5.0 0.00 0.03 0.00 36 1039.0
20260901233217 71 219 2.0 7.0 0.00 0.03 0.00 36 1039.1
20260901232503 71 237 3.0 8.0 0.00 0.03 0.00 36 1039.1
20260901232003 71 259 3.0 10.0 0.00 0.03 0.00 36 1039.1
20260901231503 70 267 3.0 10.0 0.00 0.03 0.00 37 1039.2
20260901231219 69 285 4.0 10.0 0.00 0.03 0.00 38 1039.3
20260901230503 68 298 4.0 9.0 0.00 0.03 0.00 40 1039.4
20260901230220 67 291 5.0 9.0 0.00 0.03 0.00 39 1039.5
20260901225503 68 276 4.0 10.0 0.00 0.03 0.00 39 1039.6
20260901225003 69 290 4.0 10.0 0.00 0.03 0.00 39 1039.5
20260901224503 69 307 4.0 9.0 0.00 0.03 0.00 38 1039.6
20260901224003 69 287 3.0 8.0 0.00 0.03 0.00 38 1039.7
20260901223503 69 278 4.0 10.0 0.00 0.03 0.00 38 1039.8
20260901223003 69 301 5.0 10.0 0.00 0.03 0.00 39 1039.7
20260901222721 69 312 5.0 13.0 0.00 0.03 0.00 37 1039.8
20260901222003 71 303 4.0 13.0 0.00 0.03 0.00 37 1039.7
20260901221503 70 271 4.0 12.0 0.00 0.03 0.00 38 1039.8
20260901221003 69 268 4.0 12.0 0.00 0.03 0.00 39 1039.9
20260901220503 69 270 3.0 10.0 0.00 0.03 0.00 37 1040.0
20260901220003 69 186 2.0 5.0 0.00 0.03 0.00 37 1039.9
20260901215503 69 240 3.0 7.0 0.00 0.03 0.00 39 1040.0
20260901215003 68 266 4.0 11.0 0.00 0.03 0.00 38 1040.0
20260901214503 69 277 3.0 11.0 0.00 0.03 0.00 35 1040.2
20260901214003 70 276 3.0 9.0 0.00 0.03 0.00 39 1040.1
20260901213503 69 259 3.0 8.0 0.00 0.03 0.00 40 1040.2
20260901213003 68 257 3.0 8.0 0.00 0.03 0.00 40 1040.3
20260901212503 68 253 3.0 7.0 0.00 0.03 0.00 40 1040.3
20260901212003 68 265 1.0 7.0 0.00 0.03 0.00 40 1040.3
20260901211503 68 263 2.0 7.0 0.00 0.03 0.00 36 1040.2
20260901211003 68 249 3.0 7.0 0.00 0.03 0.00 39 1040.3
20260901210503 68 199 4.0 9.0 0.00 0.03 0.00 40 1040.4
20260901210003 67 128 3.0 9.0 0.00 0.03 0.00 41 1040.4
20260901205503 67 144 2.0 8.0 0.00 0.03 0.00 42 1040.6
20260901205003 67 141 3.0 10.0 0.00 0.03 0.00 42 1040.7
20260901204503 67 138 3.0 10.0 0.00 0.03 0.00 42 1040.7
20260901204003 67 228 3.0 9.0 0.00 0.03 0.00 42 1040.8
20260901203503 67 252 3.0 9.0 0.00 0.03 0.00 42 1040.7
20260901203219 67 204 4.0 13.0 0.00 0.03 0.00 41 1040.7
20260901202503 67 154 3.0 13.0 0.00 0.03 0.00 40 1040.9
20260901202003 68 286 2.0 5.0 0.00 0.03 0.00 37 1040.9
20260901201503 67 279 3.0 10.0 0.00 0.03 0.00 37 1040.9
20260901201221 67 226 4.0 11.0 0.00 0.03 0.00 37 1041.0
20260901200503 67 211 5.0 16.0 0.00 0.03 0.00 35 1041.0
20260901200004 69 243 3.0 8.0 0.00 0.03 0.00 37 1041.0
20260901195503 69 193 4.0 13.0 0.00 0.03 0.00 36 1040.9
20260901195003 68 164 4.0 13.0 0.00 0.03 0.00 38 1040.9
20260901194503 68 223 5.0 11.0 0.00 0.03 0.00 39 1040.9
20260901194003 68 215 5.0 11.0 0.00 0.03 0.00 37 1041.1
20260901193503 68 170 4.0 10.0 0.00 0.03 0.00 38 1041.1
20260901193003 68 212 3.0 7.0 0.00 0.03 0.00 38 1041.1
20260901192503 68 209 3.0 9.0 0.00 0.03 0.00 37 1041.1
20260901192003 68 149 4.0 15.0 0.00 0.03 0.00 37 1041.1
20260901191503 68 171 5.0 15.0 0.00 0.03 0.00 37 1041.1
20260901191003 68 197 4.0 9.0 0.00 0.03 0.00 37 1041.3
20260901190503 67 145 5.0 11.0 0.00 0.03 0.00 39 1041.5
20260901190003 67 157 5.0 11.0 0.00 0.03 0.00 38 1041.5
20260901185503 67 154 5.0 12.0 0.00 0.03 0.00 38 1041.4
20260901185003 66 151 5.0 12.0 0.00 0.03 0.00 41 1041.5
20260901184503 65 182 5.0 10.0 0.00 0.03 0.00 38 1041.6
20260901184003 65 172 4.0 10.0 0.00 0.03 0.00 39 1041.7
20260901183503 66 186 4.0 12.0 0.00 0.03 0.00 39 1041.7
20260901183220 66 211 4.0 12.0 0.00 0.03 0.00 37 1041.8
20260901182503 66 259 4.0 9.0 0.00 0.03 0.00 39 1041.8
20260901182003 67 255 3.0 9.0 0.00 0.03 0.00 42 1041.7
20260901181503 66 197 3.0 7.0 0.00 0.03 0.00 44 1041.8
20260901181003 66 171 3.0 7.0 0.00 0.03 0.00 45 1041.8
20260901180503 66 190 3.0 10.0 0.00 0.03 0.00 45 1041.9
20260901180003 65 196 4.0 10.0 0.00 0.03 0.00 44 1042.0
20260901175503 65 194 3.0 8.0 0.00 0.03 0.00 47 1042.1
20260901175003 65 91 4.0 10.0 0.00 0.03 0.00 46 1042.1
20260901174503 64 114 4.0 10.0 0.00 0.03 0.00 50 1042.0
20260901174003 64 130 4.0 11.0 0.00 0.03 0.00 48 1042.1
20260901173503 63 179 4.0 11.0 0.00 0.03 0.00 48 1042.2
20260901173003 63 222 3.0 8.0 0.00 0.03 0.00 47 1042.2
20260901172503 64 193 3.0 9.0 0.00 0.03 0.00 49 1042.3
20260901172003 63 128 2.0 9.0 0.00 0.03 0.00 52 1042.2
20260901171503 62 194 2.0 7.0 0.00 0.03 0.00 54 1042.2
20260901171003 62 178 3.0 7.0 0.00 0.03 0.00 52 1042.4
20260901170503 62 154 3.0 9.0 0.00 0.03 0.00 53 1042.3
20260901170219 62 168 3.0 9.0 0.00 0.03 0.00 55 1042.3
20260901165503 63 130 4.0 9.0 0.00 0.03 0.00 53 1042.4
20260901165004 62 118 4.0 8.0 0.00 0.03 0.00 55 1042.2
20260901164504 62 166 3.0 11.0 0.00 0.03 0.00 56 1042.3
20260901164003 62 182 3.0 11.0 0.00 0.03 0.00 56 1042.2
20260901163503 62 174 3.0 7.0 0.00 0.03 0.00 58 1042.2
20260901163216 61 172 3.0 10.0 0.00 0.03 0.00 61 1042.2
20260901162503 61 206 4.0 10.0 0.00 0.03 0.00 59 1042.1
20260901162217 61 243 3.0 9.0 0.00 0.03 0.00 59 1042.2
20260901161503 61 244 3.0 7.0 0.00 0.03 0.00 58 1042.2
20260901161003 61 182 3.0 10.0 0.00 0.03 0.00 60 1042.1
20260901160721 61 173 3.0 10.0 0.00 0.03 0.00 61 1042.2
20260901160219 60 165 3.0 9.0 0.00 0.03 0.00 59 1042.2
20260901155503 60 179 3.0 8.0 0.00 0.03 0.00 65 1042.1
20260901155003 59 195 4.0 10.0 0.00 0.03 0.00 65 1042.1
20260901154503 59 169 4.0 10.0 0.00 0.03 0.00 65 1042.2
20260901154003 59 149 6.0 11.0 0.00 0.03 0.00 67 1042.2
20260901153503 58 143 6.0 11.0 0.00 0.03 0.00 66 1042.3
20260901153003 58 153 4.0 9.0 0.00 0.03 0.00 68 1042.2
20260901152503 58 167 5.0 10.0 0.00 0.03 0.00 68 1042.2
20260901152003 58 164 5.0 10.0 0.00 0.03 0.00 70 1042.3
20260901151503 57 168 4.0 10.0 0.00 0.03 0.00 71 1042.3
20260901151003 56 171 4.0 10.0 0.00 0.03 0.00 74 1042.3
20260901150503 56 164 4.0 11.0 0.00 0.03 0.00 75 1042.4
20260901150003 55 163 3.0 11.0 0.00 0.03 0.00 76 1042.4
20260901145503 54 212 3.0 9.0 0.00 0.03 0.00 78 1042.5
20260901145221 54 236 3.0 9.0 0.00 0.03 0.00 78 1042.5
20260901144503 54 200 3.0 13.0 0.00 0.03 0.00 77 1042.5
20260901144003 54 210 3.0 9.0 0.00 0.03 0.00 76 1042.4
20260901143503 54 225 3.0 9.0 0.00 0.03 0.00 76 1042.4
20260901143003 54 235 4.0 11.0 0.00 0.03 0.00 76 1042.3
20260901142503 54 220 4.0 14.0 0.00 0.03 0.00 76 1042.4
20260901142003 54 187 4.0 14.0 0.00 0.03 0.00 75 1042.3
20260901141717 54 184 4.0 14.0 0.00 0.03 0.00 75 1042.3
20260901141003 54 159 4.0 9.0 0.00 0.03 0.00 74 1042.3
20260901140503 54 151 4.0 9.0 0.00 0.03 0.00 74 1042.2
20260901140221 54 154 4.0 9.0 0.00 0.03 0.00 74 1042.2
20260901135503 54 160 4.0 8.0 0.00 0.03 0.00 75 1042.2
20260901135003 54 197 3.0 8.0 0.00 0.03 0.00 74 1042.1
20260901134503 54 197 3.0 9.0 0.00 0.03 0.00 74 1042.1
20260901134217 54 141 4.0 10.0 0.00 0.03 0.00 74 1042.0
20260901133503 54 113 3.0 10.0 0.00 0.03 0.00 73 1041.7
20260901133003 54 97 4.0 13.0 0.00 0.03 0.00 73 1041.7
20260901132503 54 97 6.0 13.0 0.00 0.03 0.00 72 1041.5
20260901132219 54 90 4.0 13.0 0.00 0.03 0.00 75 1041.6
20260901131503 54 319 2.0 5.0 0.00 0.03 0.00 74 1041.5
20260901131003 54 313 1.0 5.0 0.00 0.03 0.00 75 1041.5
20260901130503 54 291 2.0 6.0 0.00 0.03 0.00 74 1041.2
20260901130003 54 275 2.0 6.0 0.00 0.03 0.00 75 1041.5
20260901125719 54 282 1.0 3.0 0.00 0.03 0.00 74 1041.3
20260901125003 54 305 3.0 13.0 0.00 0.03 0.00 75 1041.3
20260901124504 54 315 3.0 13.0 0.00 0.03 0.00 75 1041.2
20260901124218 54 319 4.0 13.0 0.00 0.03 0.00 75 1041.1
20260901123503 53 325 5.0 14.0 0.00 0.03 0.00 76 1041.1
20260901123003 53 332 3.0 14.0 0.00 0.03 0.00 76 1040.8
20260901122717 53 325 3.0 14.0 0.00 0.03 0.00 77 1040.7
20260901122003 53 307 2.0 5.0 0.00 0.03 0.00 77 1040.7
20260901121504 53 305 2.0 5.0 0.00 0.03 0.00 78 1040.7
20260901121003 52 310 2.0 8.0 0.00 0.03 0.00 78 1040.6
20260901120503 52 332 2.0 8.0 0.00 0.03 0.00 79 1040.6
20260901120004 52 5 1.0 5.0 0.00 0.03 0.00 80 1040.7
20260901115503 52 313 1.0 3.0 0.00 0.03 0.00 80 1040.5
20260901115003 52 284 1.0 4.0 0.00 0.03 0.00 80 1040.5
20260901114503 52 182 1.0 4.0 0.00 0.03 0.00 80 1040.5
20260901114003 52 134 1.0 4.0 0.00 0.03 0.00 80 1040.6
20260901113504 52 114 0.0 4.0 0.00 0.03 0.00 80 1040.6
20260901113220 52 114 0.0 2.0 0.00 0.03 0.00 79 1040.5
20260901112717 52 117 1.0 4.0 0.00 0.03 0.00 79 1040.4
20260901112003 52 331 2.0 5.0 0.00 0.03 0.00 79 1040.6
20260901111718 52 326 3.0 8.0 0.00 0.03 0.00 79 1040.5
20260901111003 52 308 4.0 9.0 0.00 0.03 0.00 79 1040.4
20260901110719 52 308 4.0 9.0 0.00 0.03 0.00 80 1040.5
20260901110003 52 317 3.0 8.0 0.00 0.03 0.00 80 1040.5
20260901105503 52 314 3.0 7.0 0.00 0.03 0.00 81 1040.5
20260901105003 52 322 3.0 8.0 0.00 0.03 0.00 81 1040.4
20260901104503 52 321 4.0 10.0 0.00 0.03 0.00 80 1040.4
20260901104003 52 315 4.0 10.0 0.00 0.03 0.00 81 1040.4
20260901103503 52 312 4.0 9.0 0.00 0.03 0.00 81 1040.6
20260901103220 52 313 4.0 9.0 0.00 0.03 0.00 81 1040.6
20260901102503 52 291 2.0 9.0 0.00 0.03 0.00 81 1040.7
20260901102003 52 277 2.0 9.0 0.00 0.03 0.00 81 1040.7
20260901101719 52 280 2.0 9.0 0.00 0.03 0.00 81 1040.7
20260901101003 52 240 2.0 4.0 0.00 0.03 0.00 81 1040.7
20260901100503 52 233 2.0 7.0 0.00 0.03 0.00 81 1040.8
20260901100218 52 246 3.0 7.0 0.00 0.03 0.00 80 1040.7
20260901095503 52 283 3.0 11.0 0.00 0.03 0.00 80 1040.8
20260901095003 52 270 4.0 10.0 0.00 0.03 0.00 80 1040.9
20260901094503 52 263 4.0 10.0 0.00 0.03 0.00 80 1040.9
20260901094003 52 258 3.0 9.0 0.00 0.03 0.00 80 1041.1
20260901093503 52 250 3.0 8.0 0.00 0.03 0.00 79 1041.1
20260901093003 53 255 3.0 8.0 0.00 0.03 0.00 79 1041.0
20260901092503 53 271 4.0 11.0 0.00 0.03 0.00 79 1041.1
20260901092003 53 275 5.0 11.0 0.00 0.03 0.00 78 1041.1
20260901091503 53 267 5.0 11.0 0.00 0.03 0.00 78 1040.9
20260901091003 53 265 5.0 9.0 0.00 0.04 0.00 78 1040.9
20260901090503 53 275 5.0 9.0 0.00 0.04 0.00 78 1041.0
20260901090219 53 274 5.0 9.0 0.00 0.04 0.00 77 1041.0
20260901085503 54 250 3.0 7.0 0.00 0.04 0.00 76 1040.9
20260901085003 54 228 2.0 6.0 0.00 0.04 0.00 76 1041.1
20260901084503 54 254 3.0 11.0 0.00 0.04 0.00 75 1041.1
20260901084003 54 262 4.0 11.0 0.00 0.04 0.00 75 1040.9
20260901083503 54 274 5.0 11.0 0.00 0.04 0.00 75 1040.9
20260901083003 54 275 6.0 11.0 0.00 0.04 0.00 74 1040.9
20260901082503 54 267 5.0 10.0 0.00 0.04 0.00 75 1041.1
20260901082003 54 265 6.0 11.0 0.00 0.04 0.00 74 1041.1
20260901081503 54 266 6.0 11.0 0.00 0.04 0.00 74 1041.2
20260901081003 54 271 6.0 11.0 0.00 0.04 0.00 74 1041.1
20260901080503 54 275 5.0 12.0 0.00 0.04 0.00 74 1041.2
20260901080003 54 272 6.0 12.0 0.00 0.04 0.00 74 1041.2
20260901075717 54 274 6.0 12.0 0.00 0.04 0.00 74 1041.2
20260901075003 54 265 5.0 11.0 0.00 0.04 0.00 74 1041.4
20260901074503 54 253 4.0 9.0 0.00 0.04 0.00 75 1041.5
20260901074221 54 251 3.0 9.0 0.00 0.04 0.00 76 1041.5
20260901073719 54 255 3.0 8.0 0.00 0.04 0.00 76 1041.5
20260901073003 54 277 5.0 10.0 0.00 0.04 0.00 77 1041.4
20260901072503 54 278 7.0 14.0 0.00 0.04 0.00 76 1041.3
20260901072003 54 268 8.0 14.0 0.00 0.04 0.00 77 1041.3
20260901071503 54 267 7.0 14.0 0.00 0.04 0.00 76 1041.3
20260901071003 54 273 7.0 15.0 0.00 0.04 0.00 76 1041.2
20260901070503 54 273 6.0 15.0 0.00 0.04 0.00 77 1041.2
20260901070003 54 283 6.0 14.0 0.00 0.04 0.00 77 1041.3
20260901065718 54 292 6.0 14.0 0.00 0.04 0.00 77 1041.2
20260901065003 54 293 4.0 12.0 0.00 0.04 0.00 77 1041.4
20260901064503 54 278 3.0 9.0 0.00 0.04 0.00 77 1041.3
20260901064003 54 252 3.0 10.0 0.00 0.04 0.00 78 1041.3
20260901063503 54 271 3.0 10.0 0.00 0.04 0.00 78 1041.3
20260901063003 54 247 3.0 8.0 0.00 0.04 0.00 78 1041.4
20260901062721 54 229 2.0 8.0 0.00 0.04 0.00 79 1041.4
20260901062003 53 269 1.0 6.0 0.00 0.04 0.00 79 1041.5
20260901061717 53 262 1.0 6.0 0.00 0.04 0.00 79 1041.3
20260901061003 53 136 1.0 3.0 0.00 0.04 0.00 80 1041.2
20260901060503 53 137 1.0 4.0 0.00 0.04 0.00 80 1041.4
20260901060003 53 274 2.0 5.0 0.00 0.04 0.00 81 1041.3
20260901055503 53 310 1.0 5.0 0.00 0.04 0.04 80 1041.5
20260901055003 53 61 0.0 2.0 0.00 0.04 0.04 82 1041.5
20260901054503 53 79 0.0 2.0 0.00 0.04 0.04 81 1041.6
20260901054003 53 94 0.0 2.0 0.00 0.04 0.04 80 1041.7
20260901053504 53 101 1.0 6.0 0.00 0.04 0.04 80 1041.8